Вернуться в каталог

STARLINK-35951

АктивенСвязьVLEO
NORAD 66619·PAYLOAD·🇺🇸 United States

Запущен Nov 23, 2025 с Vandenberg Space Force Base

Loading…

Ближайшие Пролёты (ближайшие 24 часа)

TLE

СвежийSource: CelesTrak SupGP

Эпоха: Sep 15, 2026, 03:39 UTC

1 66619C 25271C   26258.15256944  .00063261  00000+0  18684-2 0  2588
2 66619  53.1588 338.4448 0001267  84.9164 318.9739 15.34370473    10

Отслеживайте STARLINK-35951 в реальном времени с AllMySat

Download on the App Store